Location: Pasarilla del Rebollar
(40.6790°N, 5.0062°W)
Time: 10:42:38
(UTC+00:00)

Cosmos 1697 Rocket - Pass Details

Date: 22 April 2026
Orbit: 832 x 842 km, 71.0° (Epoch: 15 May)

Event Time Altitude Azimuth Distance (km) Brightness Sun altitude
Rises 23:57:54 0° 339° (NNW) 3,397 6.8 -37.0°
Reaches altitude 10° 00:00:24 10° 343° (NNW) 2,457 5.8 -37.0°
Enters shadow 00:03:28 32° 357° (N) 1,400 4.2 -37.1°
